Rolla, ND

1:15 AM CST on November 15, 2019 (GMT -0600)
Rolla

Weather History for K06D - October, 2019

Change the Weather History Date:

Tuesday, October 22, 2019

  Actual Average (WUND) Record (WUND)
Temperature  
Mean Temperature 34 °F -  
Max Temperature 41 °F - - (-1)
Min Temperature 26 °F - - (-1)
Degree Days  
Heating Degree Days 32    
Moisture  
Dew Point 25 °F    
Average Humidity 75    
Maximum Humidity 93    
Minimum Humidity 49    
Precipitation  
Precipitation 0.00 in - - ()
Sea Level Pressure  
Sea Level Pressure 29.79 in    
Wind  
Wind Speed 18 mph (NNW)    
Max Wind Speed 24 mph    
Max Gust Speed 33 mph    
Visibility 10 miles    
Events      
Averages and records for this station are not official NWS values.
T = Trace of Precipitation, MM = Missing Value Source: NWS Daily Summary

Daily Weather History Graph

Daily Weather History Graph

Search for Another Location

Airport or City:

Astronomy

Oct. 22, 2019 Rise Set
Actual Time 8:09 AM CDT 6:35 PM CDT
Civil Twilight 7:37 AM CDT 7:07 PM CDT
Nautical Twilight 7:00 AM CDT 7:44 PM CDT
Astronomical Twilight 6:23 AM CDT 8:21 PM CDT
Moon 12:38 AM CDT (10/22) 4:25 PM CDT (10/22)
Length of Visible Light 11h 30m
Length of Day
10h 26m
Last Quarter, 37% of the Moon is Illuminated
Oct 22
Last Quarter
Oct 27
New
Nov 4
First Quarter
Nov 12
Full
Nov 19
Last Quarter

Hourly Weather History & Observations

Time (CDT) Temp. Windchill Dew Point Humidity Pressure Visibility Wind Dir Wind Speed Gust Speed Precip Events Conditions
12:15 AM 30.2 °F 18.1 °F 28.4 °F 93% 29.84 in 10.0 mi NNW 18.4 mph 26.5 mph N/A   Clear
12:35 AM 30.2 °F 17.8 °F 28.4 °F 93% 29.84 in 10.0 mi North 19.6 mph - N/A   Clear
12:55 AM 30.2 °F 18.1 °F 26.6 °F 86% 29.84 in 10.0 mi NNW 18.4 mph - N/A   Clear
1:15 AM 30.2 °F 18.5 °F 26.6 °F 86% 29.84 in 10.0 mi NNW 17.3 mph - N/A   Clear
1:35 AM 30.2 °F 18.1 °F 26.6 °F 86% 29.84 in 10.0 mi NNW 18.4 mph 24.2 mph N/A   Clear
1:55 AM 30.2 °F 18.1 °F 26.6 °F 86% 29.83 in 10.0 mi NNW 18.4 mph 26.5 mph N/A   Clear
2:15 AM 28.4 °F 15.8 °F 26.6 °F 93% 29.84 in 10.0 mi NNW 18.4 mph - N/A   Clear
2:35 AM 30.2 °F 18.1 °F 26.6 °F 86% 29.84 in 10.0 mi NNW 18.4 mph - N/A   Clear
2:55 AM 30.2 °F 18.1 °F 26.6 °F 86% 29.83 in 10.0 mi NW 18.4 mph - N/A   Clear
3:15 AM 30.2 °F 17.1 °F 26.6 °F 86% 29.83 in 10.0 mi NW 21.9 mph 27.6 mph N/A   Clear
3:35 AM 30.2 °F 17.4 °F 26.6 °F 86% 29.83 in 10.0 mi NW 20.7 mph 27.6 mph N/A   Partly Cloudy
3:55 AM 30.2 °F 18.1 °F 26.6 °F 86% 29.83 in 10.0 mi NNW 18.4 mph 25.3 mph N/A   Partly Cloudy
4:15 AM 28.4 °F 16.2 °F 24.8 °F 86% 29.82 in 10.0 mi NNW 17.3 mph 23.0 mph N/A   Partly Cloudy
4:35 AM 28.4 °F 15.8 °F 24.8 °F 86% 29.82 in 10.0 mi NNW 18.4 mph 24.2 mph N/A   Partly Cloudy
4:55 AM 28.4 °F 16.2 °F 24.8 °F 86% 29.82 in 10.0 mi NNW 17.3 mph - N/A   Clear
5:15 AM 28.4 °F 16.6 °F 24.8 °F 86% 29.82 in 10.0 mi NNW 16.1 mph 27.6 mph N/A   Clear
5:35 AM 28.4 °F 15.8 °F 26.6 °F 93% 29.82 in 10.0 mi NNW 18.4 mph 26.5 mph N/A   Scattered Clouds
5:55 AM 30.2 °F 17.8 °F 26.6 °F 86% 29.81 in 10.0 mi NW 19.6 mph - N/A   Overcast
6:15 AM 30.2 °F 18.1 °F 26.6 °F 86% 29.81 in 10.0 mi NNW 18.4 mph - N/A   Overcast
6:35 AM 30.2 °F 17.8 °F 26.6 °F 86% 29.81 in 10.0 mi NW 19.6 mph - N/A   Overcast
6:55 AM 30.2 °F 17.8 °F 26.6 °F 86% 29.81 in 10.0 mi NW 19.6 mph - N/A   Overcast
7:15 AM 30.2 °F 19.3 °F 26.6 °F 86% 29.81 in 10.0 mi NW 15.0 mph 21.9 mph N/A   Overcast
7:35 AM 30.2 °F 18.9 °F 26.6 °F 86% 29.81 in 10.0 mi NNW 16.1 mph 23.0 mph N/A   Overcast
7:55 AM 30.2 °F 18.9 °F 26.6 °F 86% 29.81 in 10.0 mi NNW 16.1 mph 24.2 mph N/A   Mostly Cloudy
8:15 AM 28.4 °F 16.2 °F 26.6 °F 93% 29.80 in 10.0 mi NW 17.3 mph - N/A   Partly Cloudy
8:35 AM 28.4 °F 16.6 °F 26.6 °F 93% 29.80 in 10.0 mi NW 16.1 mph 23.0 mph N/A   Clear
8:55 AM 30.2 °F 18.1 °F 26.6 °F 86% 29.80 in 10.0 mi NW 18.4 mph 27.6 mph N/A   Clear
9:15 AM 30.2 °F 17.4 °F 26.6 °F 86% 29.80 in 10.0 mi NW 20.7 mph - N/A   Clear
9:35 AM 30.2 °F 17.1 °F 26.6 °F 86% 29.80 in 10.0 mi NNW 21.9 mph 28.8 mph N/A   Clear
9:55 AM 32.0 °F 19.5 °F 26.6 °F 80% 29.80 in 10.0 mi NNW 21.9 mph - N/A   Partly Cloudy
10:15 AM 32.0 °F 20.5 °F 26.6 °F 80% 29.80 in 10.0 mi NNW 18.4 mph 32.2 mph N/A   Clear
10:35 AM 32.0 °F 20.1 °F 26.6 °F 80% 29.79 in 10.0 mi NNW 19.6 mph 28.8 mph N/A   Partly Cloudy
10:55 AM 33.8 °F 21.9 °F 26.6 °F 75% 29.79 in 10.0 mi NNW 21.9 mph 29.9 mph N/A   Scattered Clouds
11:15 AM 33.8 °F 21.6 °F 24.8 °F 70% 29.79 in 10.0 mi NNW 23.0 mph 32.2 mph N/A   Mostly Cloudy
11:35 AM 33.8 °F 22.2 °F 24.8 °F 70% 29.78 in 10.0 mi NNW 20.7 mph 33.4 mph N/A   Mostly Cloudy
11:55 AM 33.8 °F 21.3 °F 24.8 °F 70% 29.78 in 10.0 mi NNW 24.2 mph 29.9 mph N/A   Overcast
12:15 PM 35.6 °F 24.0 °F 24.8 °F 65% 29.78 in 10.0 mi NNW 23.0 mph 28.8 mph N/A   Overcast
12:55 PM 37.4 °F 26.1 °F 26.6 °F 65% 29.78 in 10.0 mi NNW 24.2 mph - N/A   Mostly Cloudy
1:15 PM 37.4 °F 26.4 °F 24.8 °F 60% 29.77 in 10.0 mi NW 23.0 mph - N/A   Mostly Cloudy
1:35 PM 37.4 °F 26.6 °F 24.8 °F 60% 29.77 in 10.0 mi NNW 21.9 mph - N/A   Mostly Cloudy
1:55 PM 39.2 °F 29.6 °F 24.8 °F 56% 29.76 in 10.0 mi NNW 19.6 mph 26.5 mph N/A   Scattered Clouds
2:15 PM 39.2 °F 29.0 °F 24.8 °F 56% 29.76 in 10.0 mi NNW 21.9 mph - N/A   Mostly Cloudy
2:35 PM 39.2 °F 29.0 °F 23.0 °F 52% 29.75 in 10.0 mi NW 21.9 mph - N/A   Scattered Clouds
2:55 PM 39.2 °F 29.6 °F 23.0 °F 52% 29.76 in 10.0 mi NNW 19.6 mph 27.6 mph N/A   Partly Cloudy
3:15 PM 41.0 °F 31.6 °F 23.0 °F 49% 29.75 in 10.0 mi NNW 20.7 mph 28.8 mph N/A   Partly Cloudy
3:35 PM 41.0 °F 32.2 °F 23.0 °F 49% 29.75 in 10.0 mi NNW 18.4 mph 25.3 mph N/A   Clear
3:55 PM 41.0 °F 31.4 °F 23.0 °F 49% 29.75 in 10.0 mi NW 21.9 mph - N/A   Partly Cloudy
4:15 PM 39.2 °F 29.0 °F 24.8 °F 56% 29.75 in 10.0 mi NW 21.9 mph - N/A   Scattered Clouds
4:35 PM 39.2 °F 29.0 °F 23.0 °F 52% 29.75 in 10.0 mi NNW 21.9 mph - N/A   Scattered Clouds
4:55 PM 39.2 °F 30.8 °F 23.0 °F 52% 29.75 in 10.0 mi NNW 15.0 mph 26.5 mph N/A   Scattered Clouds
5:15 PM 39.2 °F 30.8 °F 23.0 °F 52% 29.75 in 10.0 mi NNW 15.0 mph 24.2 mph N/A   Clear
5:35 PM 39.2 °F 29.8 °F 21.2 °F 49% 29.75 in 10.0 mi NNW 18.4 mph 25.3 mph N/A   Clear
5:55 PM 37.4 °F 28.5 °F 21.2 °F 52% 29.76 in 10.0 mi NNW 15.0 mph - N/A   Clear
6:15 PM 37.4 °F 29.3 °F 21.2 °F 52% 29.75 in 10.0 mi NNW 12.7 mph - N/A   Clear
6:35 PM 35.6 °F 27.5 °F 21.2 °F 56% 29.76 in 10.0 mi NNW 11.5 mph - N/A   Clear
6:55 PM 33.8 °F 26.4 °F 23.0 °F 65% 29.76 in 10.0 mi NW 9.2 mph - N/A   Clear
7:15 PM 30.2 °F 22.6 °F 23.0 °F 75% 29.76 in 10.0 mi NW 8.1 mph - N/A   Clear
7:35 PM 30.2 °F 22.6 °F 23.0 °F 75% 29.76 in 10.0 mi NW 8.1 mph - N/A   Clear
7:55 PM 30.2 °F 21.9 °F 23.0 °F 75% 29.76 in 10.0 mi NW 9.2 mph - N/A   Clear
8:15 PM 30.2 °F 23.4 °F 23.0 °F 75% 29.77 in 10.0 mi NW 6.9 mph - N/A   Clear
8:35 PM 28.4 °F 20.4 °F 23.0 °F 80% 29.77 in 10.0 mi NW 8.1 mph - N/A   Clear
8:55 PM 30.2 °F 22.6 °F 23.0 °F 75% 29.78 in 10.0 mi NW 8.1 mph - N/A   Clear
9:15 PM 30.2 °F 21.3 °F 21.2 °F 69% 29.77 in 10.0 mi NNW 10.4 mph - N/A   Clear
9:35 PM 30.2 °F 21.3 °F 21.2 °F 69% 29.77 in 10.0 mi NNW 10.4 mph - N/A   Clear
9:55 PM 28.4 °F 20.4 °F 21.2 °F 74% 29.77 in 10.0 mi NNW 8.1 mph - N/A   Clear
10:15 PM 26.6 °F 18.2 °F 21.2 °F 80% 29.77 in 10.0 mi NNW 8.1 mph - N/A   Clear
10:35 PM 26.6 °F 18.2 °F 21.2 °F 80% 29.78 in 10.0 mi NNW 8.1 mph - N/A   Clear
10:55 PM 26.6 °F 19.1 °F 21.2 °F 80% 29.78 in 10.0 mi NNW 6.9 mph - N/A   Clear
11:15 PM 26.6 °F 19.1 °F 21.2 °F 80% 29.78 in 10.0 mi NNW 6.9 mph - N/A   Clear
11:35 PM 26.6 °F 19.1 °F 21.2 °F 80% 29.78 in 10.0 mi North 6.9 mph - N/A   Clear
11:55 PM 26.6 °F 18.2 °F 21.2 °F 80% 29.79 in 10.0 mi North 8.1 mph - N/A   Clear